EHI
0 0 0 0 0 0 0 0 0 0 0 0 0 0 0 0 0 0 0 0 0 0 0 0 0 0 0 0 0 0 0 0 0 0 0 0 0 0 0 0 0 0 0
0 0 0 0 0 0 0 0 0 0 0 0 0 0 0 0 0 0 0 0 0 0 0 0 0 0 0 0 0 0 0 0 0 0 0 0 0 0 0 0 0 0 0
0 0 0 0 0 0 0 0 0 0 0 0 0 0 0 0 0 0 0 0 0 0 0 0 0 0 0 0 0 0 0 0 0 0 0 0 0 0 0 0 0 0 0
0 0 0 0 0 0 0 0 0 0 0 0 0 0 0 0 0 0 0 0 0 0 0 0 0 0 0 0 0 0 0 0 0 0 0 0 0 0 0 0 0 0 0
0 0 0 0 0 0 0 0 0 0 0 0 0 0 0 0 0 0 0 0 0 0 0 0 0 0 0 0 0 0 0 0 0 0 0 0 0 0 0 0 0 0 0
0 0 0 0 0 0 0 0 0 0 0 0 0 0 0 0 0 0 0 0 0 0 0 0 0 0 0 0 0 0 0 0 0 0 0 0 0 0 0 0 0 0 0
0 0 0 0 0 0 0 0 0 0 0 0 0 0 0 0 0 0 0 0 0 0 0 0 0 0 0 0 0 0 0 0 0 0 0 0 0 0 0 0 0 0 0
0 0 0 0 0 0 0 0 0 0 0 0 0 0 0 0 0 0 0 0 0 0 0 0 0 0 0 0 0 0 0 0 0 0 0 0 0 0 0 0 0 0 0
0 0 0 0 0 0 0 0 0 0 0 0 0 0 0 0 0 0 0 0 0 0 0 0 0 0 0 0 0 0 0 0 0 0 0 0 0 0 0 0 0 0 0
0 0 0 0 0 0 0 0 0 0 0 0 0 0 0 0 0 0 0 0 0 0 0 0 0 0 0 0 0 0 0 0 0 0 0 0 0 0 0 0 0 0 0
0 0 0 0 0 0 0 0 0 0 0 0 0 0 0 0 0 0 0 0 0 0 0 0 0 0 0 0 0 0 0 0 0 0 0 0 0 0 0 0 0 0 0
0 0 0 0 0 0 0 0 0 0 0 0 0 0 0 0 0 0 0 0 0 0 0 0 0 0 0 0 0 0 0 0 0 0 0 0 0 0 0 0 0 0 0
0 0 0 0 0 0 0 0 0 0 0 0 0 0 0 0 0 0 0 0 0 0 0 0 0 0 0 0 0 0 0 0 0 0 0 0 0 0 0 0 0 0 0
0 0 0 0 0 0 0 0 0 0 0 0 0 0 0 0 0 0 0 0 0 0 0 0 0 0 0 0 0 0 0 0 0 0 0 0 0 0 0 0 0 0 0
0 0 0 0 0 0 0 0 0 0 0 0 0 0 0 0 0 0 0 0 0 0 0 0 0 0 0 0 0 0 0 0 0 0 0 0 0 0 0 0 0 0 0
0 0 0 0 0 0 0 0 0 0 0 0 0 0 0 0 0 0 0 0 0 0 0 0 0 0 0 0 0 0 0 0 0 0 0 0 0 0 0 0 0 0 0
0 0 0 0 0 0 0 0 0 0 0 0 0 0 0 0 0 0 0 0 0 0 0 0 0 0 0 0 0 0 0 0 0 0 0 0 0 0 0 0 0 0 0
0 0 0 0 0 0 0 0 0 0 0 0 0 0 0 0 0 0 0 0 0 0 0 0 0 0 0 0 0 0 0 0 0 0 0 0 0 0 0 0 0 0 0
0 0 0 0 0 0 0 0 0 0 0 0 0 0 0 0 0 0 0 0 0 0 0 0 0 0 0 0 0 0 0 0 0 0 0 0 0 0 0 0 0 0 0
0 0 0 0 0 0 0 0 0 0 0 0 0 0 0 0 0 0 0 0 0 0 0 0 0 0 0 0 0 0 0 0 0 0 0 0 0 0 0 0 0 0 0
0 0 0 0 0 0 0 0 0 0 0 0 0 0 0 0 0 0 0 0 0 0 0 0 0 0 0 0 0 0 0 0 0 0 0 0 0 0 0 0 0 0 0
0 0 0 0 0 0 0 0 0 0 0 0 0 0 0 0 0 0 0 0 0 0 0 0 0 0 0 0 0 0 0 0 0 0 0 0 0 0 0 0 0 0 0
0 0 0 0 0 0 0 0 0 0 0 0 0 0 0 0 0 0 0 0 0 0 0 0 0 0 0 0 0 0 0 0 0 0 0 0 0 0 0 0 0 0 0
0 0 0 0 0 0 0 0 0 0 0 0 0 0 0 0 0 0 0 0 0 0 0 0 0 0 0 0 0 0 0 0 0 0 0 0 0 0 0 0 0 0 0
0 0 0 0 0 0 0 0 0 0 0 0 0 0 0 0 0 0 0 0 0 0 0 0 0 0 0 0 0 0 0 0 0 0 0 0 0 0 0 0 0 0 0
0 0 0 0 0 0 0 0 0 0 0 0 0 0 0 0 0 0 0 0 0 0 0 0 0 0 0 0 0 0 0 0 0 0 0 0 0 0 0 0 0 0 0
Wind_Speed
7 7 7 6 6 7 6 7 6 6 6 6 6 6 6 6 6 6 6 6 6 5 4 4 4 3 1 1 1 2 2 4 6 5 4 4 4 5 5 5 5 5 7
6 6 6 6 7 7 7 6 6 6 6 6 6 6 7 7 6 7 6 7 7 7 6 6 5 4 4 3 2 4 4 5 7 9 5 4 5 5 5 4 4 4 5
6 6 6 6 7 7 7 6 6 6 6 6 6 6 6 6 6 7 7 7 7 7 7 6 6 6 5 4 4 5 5 6 6 8 6 4 4 4 4 4 5 3 4
5 6 6 6 6 6 6 6 6 6 6 6 7 7 7 7 7 7 7 7 8 8 8 7 7 7 6 5 5 6 6 7 7 7 6 5 5 5 4 4 4 3 3
5 6 6 6 6 6 6 6 6 6 7 7 7 7 7 7 8 8 6 7 8 8 8 8 9 9 10 7 5 6 6 6 6 6 6 6 5 4 4 3 3 3 3
6 6 6 6 6 6 6 6 6 6 7 7 7 8 9 8 9 10 8 8 8 8 8 8 8 9 10 10 10 9 7 5 6 5 5 6 5 4 3 2 2 2 3
6 6 5 6 6 5 5 6 6 6 7 7 7 8 9 9 10 10 9 7 8 8 7 7 7 7 7 8 9 8 10 8 5 4 6 5 5 4 2 2 2 1 1
6 6 6 6 6 5 6 6 6 5 6 6 6 7 8 9 10 9 8 6 8 8 8 8 8 8 8 5 7 8 8 7 5 5 5 4 4 3 1 1 1 2 3
6 6 6 5 5 5 6 5 5 5 5 5 6 6 7 8 10 10 9 6 6 7 8 8 7 8 8 6 5 7 7 6 7 7 6 5 4 2 3 2 2 2 1
6 6 5 5 5 5 5 4 4 4 4 4 6 6 7 7 8 10 10 4 5 5 6 7 10 8 7 7 4 5 6 5 4 5 4 4 4 3 3 3 3 2 1
6 5 5 4 4 5 4 3 3 3 3 4 4 4 5 6 6 8 10 5 4 4 5 5 7 7 7 7 5 5 4 2 2 2 3 3 3 2 2 1 2 3 3
6 5 4 4 3 4 3 3 2 2 3 3 3 3 4 4 5 5 6 6 6 4 4 5 6 5 5 5 4 3 3 4 1 1 1 1 1 1 2 2 2 3 3
6 5 4 4 3 2 2 2 2 1 1 2 2 3 3 3 4 3 2 2 3 3 4 5 3 1 1 1 2 2 4 2 1 1 1 1 1 1 1 1 2 3 4
5 5 4 4 3 3 1 1 1 1 1 1 2 2 3 2 2 2 3 4 5 3 2 3 4 3 3 1 3 3 1 2 2 1 1 1 1 1 2 2 2 3 3
5 5 4 4 3 3 2 2 2 3 4 4 3 2 1 2 5 6 5 4 4 4 3 2 2 2 3 2 1 1 0 1 1 1 2 2 2 2 2 2 3 4 4
5 4 3 3 3 2 3 3 2 1 2 0 3 5 3 4 2 2 3 4 4 5 6 3 1 1 1 1 1 1 1 1 1 2 2 2 3 3 3 3 4 5 5
4 3 3 3 3 2 2 2 3 4 5 4 4 4 4 3 3 4 4 5 6 6 6 3 2 2 2 2 2 2 1 1 2 3 3 3 3 4 4 4 5 5 6
5 4 3 2 2 2 1 1 1 1 3 4 7 8 7 7 6 6 5 6 7 7 5 3 2 2 3 3 3 3 2 3 3 4 4 4 5 5 5 6 5 6 7
5 4 3 2 2 2 2 2 1 1 1 1 3 6 9 8 9 8 7 7 6 4 4 3 3 3 3 3 3 3 4 4 4 5 5 5 5 6 6 6 6 5 7
5 2 3 4 4 3 3 3 2 2 2 2 2 2 5 7 7 7 8 7 6 5 5 4 4 4 4 5 5 5 5 5 5 6 6 6 6 7 7 8 8 8 8
5 6 7 6 5 4 3 3 3 3 3 3 3 1 2 5 5 5 5 5 6 5 5 5 5 5 6 6 6 6 7 6 6 6 6 6 7 7 7 8 8 9 9
5 5 6 6 5 4 4 4 4 4 4 5 4 4 7 7 6 6 5 5 5 6 6 6 7 6 6 6 6 6 7 7 7 7 7 7 7 8 8 9 9 9 10
6 6 6 6 6 5 6 7 6 6 6 6 6 5 6 6 6 6 6 6 6 6 6 6 7 8 7 7 7 8 8 8 7 7 8 8 9 9 9 10 11 12 12
8 8 7 7 7 7 7 7 7 7 7 7 7 7 7 6 7 8 8 7 7 7 8 8 9 10 11 9 8 9 9 8 8 8 10 10 11 10 10 11 12 14 13
9 8 8 8 7 7 7 8 8 8 8 8 8 8 8 8 8 8 8 8 9 9 11 11 9 10 13 14 13 11 6 4 7 9 10 10 12 13 13 14 13 14 14
10 10 9 8 8 8 8 8 9 9 9 8 8 9 9 9 9 9 9 9 9 9 10 10 12 14 14 13 14 11 7 7 8 9 10 11 13 13 14 13 16 15 16
Wind_Direction
80 78 76 73 71 69 65 59 52 46 40 38 34 33 37 33 32 35 37 37 42 42 39 47 46 38 47 94 117 123 115 116 116 111 106 104 99 98 98 98 104 109 105
86 83 79 76 74 71 68 62 57 51 44 44 44 42 43 42 38 39 38 39 43 45 44 48 50 61 62 60 82 98 98 104 122 121 118 115 108 110 107 110 109 106 108
96 93 87 79 76 73 69 59 54 52 50 47 46 45 43 42 44 47 46 44 46 47 47 48 51 64 69 71 79 94 104 109 112 121 120 118 118 119 124 117 110 112 126
101 99 91 84 81 77 72 64 54 51 51 48 45 44 41 40 42 49 55 54 53 54 54 53 52 57 63 76 87 97 107 114 119 123 126 132 129 135 139 135 137 150 142
110 103 96 93 88 81 74 68 60 53 52 51 52 50 46 45 30 25 54 62 59 61 64 65 64 62 52 49 69 93 112 122 128 128 128 128 129 144 144 150 128 139 147
114 104 101 100 92 83 77 71 65 57 51 52 53 54 51 45 21 13 18 61 59 60 64 73 83 78 77 70 65 64 67 94 106 116 120 124 131 133 127 142 142 155 155
117 111 108 103 95 89 84 75 68 64 58 55 54 57 59 47 26 19 11 44 58 57 58 61 68 76 82 91 93 98 78 67 68 83 103 108 120 114 129 147 127 72 64
122 115 108 104 99 94 87 77 70 69 63 58 54 56 62 51 28 16 354 57 60 58 60 63 69 68 55 57 91 88 84 75 66 71 81 82 84 82 109 129 161 187 193
127 118 111 109 106 97 87 82 75 73 71 70 63 57 58 55 28 11 353 71 69 66 63 54 54 71 39 11 81 91 90 91 88 81 72 76 67 28 330 274 237 247 202
125 118 112 107 101 94 89 86 86 85 81 79 73 59 54 52 34 15 351 48 67 77 84 83 64 48 29 11 65 84 88 87 95 116 128 163 172 170 224 284 306 309 313
127 121 113 111 110 104 101 94 93 93 83 78 81 78 66 53 58 33 10 11 34 56 72 78 71 47 33 20 19 60 58 20 118 143 146 153 161 167 178 174 330 326 329
134 129 125 126 119 112 115 105 96 102 127 118 109 97 93 84 55 51 31 21 1 43 51 61 71 45 30 18 31 40 320 287 237 109 100 100 88 78 66 28 358 335 322
140 135 134 133 121 118 130 133 147 161 144 108 113 101 93 98 117 136 102 36 4 23 49 49 27 340 269 168 142 282 273 261 359 24 46 33 34 38 299 229 219 230 239
147 146 148 148 149 143 186 144 92 47 57 98 91 89 96 110 93 102 137 155 176 175 130 153 204 236 239 223 206 218 248 1 344 336 339 313 266 239 250 269 272 262 259
150 152 156 149 138 150 128 40 11 45 20 347 12 38 59 82 57 21 345 3 8 29 334 251 210 190 197 181 156 101 220 202 224 280 290 280 268 270 276 280 285 280 279
163 164 160 153 151 161 147 141 106 22 105 87 336 335 28 51 37 348 337 329 322 318 295 265 260 256 268 291 279 231 225 272 299 280 278 283 286 284 282 278 275 279 284
163 158 167 160 164 173 164 168 153 168 201 218 231 250 272 301 288 284 284 288 279 274 260 260 268 281 280 269 269 280 299 319 301 283 284 287 285 282 279 280 282 284 285
175 164 195 181 184 187 188 210 215 196 175 177 194 213 223 235 245 253 258 265 242 227 244 256 262 266 270 276 278 281 279 267 258 266 275 280 283 282 281 282 282 287 290
195 183 194 198 211 213 226 240 239 242 246 203 174 177 202 215 226 237 237 247 259 256 250 250 257 263 266 266 268 271 275 275 277 279 275 275 276 277 279 281 282 282 278
194 183 234 232 227 226 229 239 239 237 239 236 226 203 184 207 221 211 214 234 251 258 260 260 262 268 266 265 263 260 256 257 256 259 265 268 271 274 276 279 284 285 282
200 180 199 234 236 235 238 244 245 246 246 246 243 164 303 264 255 253 249 238 247 255 258 265 264 258 255 256 259 262 264 266 268 271 272 270 272 272 275 277 278 281 285
219 209 210 225 230 232 244 246 245 246 248 252 251 204 194 242 256 255 252 250 250 251 254 259 265 264 263 264 264 263 263 265 267 270 273 273 270 271 274 277 280 284 285
228 227 225 228 234 226 239 246 249 253 255 256 259 259 234 245 254 256 257 257 256 256 255 252 257 263 262 262 266 268 269 269 271 275 275 274 275 275 276 278 281 283 284
227 229 232 232 234 237 240 245 249 254 257 258 260 261 262 259 260 263 264 262 259 257 255 254 257 262 264 264 262 259 259 266 273 272 271 275 278 279 279 279 279 281 283
232 232 236 237 239 243 246 250 254 257 259 259 260 261 262 262 261 260 259 258 258 257 257 257 256 258 259 259 261 265 265 251 256 272 273 269 271 274 277 279 279 282 283
233 235 239 241 243 248 251 252 254 257 258 259 260 261 263 264 263 263 261 260 260 259 259 258 257 259 260 260 260 261 247 235 236 238 257 266 269 270 274 275 278 279 280